Flag for Canada Weather past 2 weeks in Gatineau, Quebec, Canada

Now
70 °F

Passing clouds.


Feels Like: 70 °F
Forecast: 67 / 86 °F
Wind: 8 mph from South

Location: Ottawa Int'L. Ont.

Current Time: Jul 30, 2015 at 7:15:16 AM

Latest Report: Jul 30, 2015 at 6:00 AM


Visibility: 15 mi

Pressure: 29.73 "Hg

Humidity: 88%

Dew point: 66 °F

Location of GatineauLocation

Historic Weather in Gatineau — Graph

°F

Gatineau temperature yesterday

Maximum temperature yesterday: 93 °F (at 2:00 PM)
Minimum temperature yesterday: 68 °F (at 3:00 AM)
Average temperature yesterday: 79 °F

Past Weeks' High & Low Weather Summary

 TemperatureHumidityPressure
High93 °F (Jul 28, 4:00 PM)100% (Jul 17, 11:00 PM)30.16 "Hg (Jul 17, 11:00 PM)
Low48 °F (Jul 17, 5:00 AM)36% (Jul 16, 4:00 PM)29.53 "Hg (Jul 21, 1:00 PM)
Average71 °F72%29.86 "Hg
* Reported Jul 15 6:00 AM — Jul 30 6:00 AM, Gatineau, Weather by CustomWeather, © 2015

Note: Actual official high and low records may vary slightly from our data, if they occured in-between our weather recording intervals... More about our weather records

Advertising

Gatineau weather history for previous 24 hours

 ConditionsComfort  
Time TempWeatherWind HumidityBarometerVisibility
6:00 AM
Thu, Jul 30
70 °FPassing clouds.8 mph88%29.73 "Hg15 mi
5:00 AM68 °FPassing clouds.5 mph88%29.74 "Hg15 mi
4:00 AM70 °FPassing clouds.3 mph78%29.75 "Hg15 mi
3:00 AM70 °FClear.5 mph78%29.76 "Hg15 mi
2:00 AM70 °FClear.6 mph73%29.78 "Hg15 mi
1:00 AM70 °FPassing clouds.5 mph78%29.80 "Hg15 mi
12:00 AM73 °FPassing clouds.5 mph74%29.81 "Hg15 mi
11:00 PM
Wed, Jul 29
73 °FClear.5 mph78%29.83 "Hg15 mi
10:00 PM75 °FClear.5 mph78%29.84 "Hg15 mi
9:00 PM77 °FPassing clouds.7 mph74%29.83 "Hg15 mi
8:00 PM82 °FPassing clouds.7 mph62%29.83 "Hg15 mi
7:00 PM86 °FPassing clouds.10 mph52%29.83 "Hg15 mi
6:00 PM90 °FPassing clouds.12 mph46%29.83 "Hg15 mi
5:00 PM91 °FPassing clouds.12 mph46%29.84 "Hg15 mi
4:00 PM93 °FPassing clouds.15 mph39%29.87 "Hg15 mi
3:00 PM93 °FScattered clouds.13 mph36%29.88 "Hg15 mi
2:00 PM93 °FBroken clouds.14 mph44%29.90 "Hg15 mi
1:00 PM90 °FPartly sunny.7 mph49%29.91 "Hg15 mi
12:00 PM88 °FPartly sunny.6 mph62%29.93 "Hg15 mi
11:00 AM84 °FPartly sunny.5 mph66%29.93 "Hg15 mi
10:00 AM81 °FPartly sunny.2 mph74%29.94 "Hg15 mi
9:00 AM77 °FPartly sunny.6 mph79%29.95 "Hg15 mi
8:00 AM75 °FPartly sunny.3 mph83%29.93 "Hg15 mi
7:00 AM70 °FPartly sunny.5 mph94%29.93 "Hg15 mi
Weather by CustomWeather, © 2015

See weather overviewHow to use our weather pages